TITAN 3C TRANSTAGE DEB, 26530

Orbit data source: Space-Track

TITAN 3C TRANSTAGE DEB, 26530 is space debris in HEO originally from a launch on Tue, 21 Dec 1965 UTC launched from the Air Force Eastern Test Range (AFETR). Debris objects in space refer to the collection of defunct objects orbiting the Earth. Examples of debris include non-operational satellites, rocket bodies, and fragments generated from explosions, collisions, or faulty payload assembly.

Loading next visibility...
Identifier
26530, 1965-108AR
Orbit
HEO
Country
Flag of USUS
Related business
Manufacturer
Unknown
Mission
Spacecraft
Bus & Motor
Unknown
Mass
Unknown
Launch date (UTC)
1965-12-21 (60 years ago)
Launch vehicle
Unknown
Launch site
Air Force Eastern Test Range (AFETR)
Object type
Payload
Rocket body
Debris
Shape & HBR
Unknown shape, 0.3 m
Radar Cross Section
Medium (>0.1 m² and <1 m²)

Expand to show TLE details & history
Last TLE update: 2 days ago

TLE from 2 days ago
0 TITAN 3C TRANSTAGE DEB
1 26530U 65108AR  26035.37617891  .00000404  00000-0  21857-2 0  9997
2 26530  26.8863 161.6805 6743124 225.1899  54.8262  2.82900081272829
Epoch: 2026-02-04T09:01Z
TLE epoch observation values (Epoch: 2026-02-04T09:01:41.857Z)
Latitude
0.00004°
Longitude
-108.299°
Altitude
15,603.121 km
Speed
4.17 km/s
True Right ascension
10h 46m 40s
True Declination
0° 00' 00"
Sunlit
Object was in daylight at epoch
Visualization orbit readout
Latitude
Unknown
Longitude
Unknown
Altitude
Unknown
Speed
Unknown
Apparent Right ascension
Unknown
Apparent Declination
Unknown
Sunlit
N/A
Visualization observer readout
Local Sidereal Time
09:05:40
Azimuth
Unknown
Elevation
Unknown
Doppler factor
Unknown
Orbital elements
Apogee altitude
28,985.511 km
Perigee altitude
500.807 km
Semi-major axis
21,121.296 km
Eccentricity
0.67431
Inclination
26.8863°
RAAN
161.6805°
Arg. of periapsis
225.1899°
True anomaly
134.8581°
Mean anomaly
54.8262°
Eccentric anomaly
93.3937°
Mean motion
0.70707 °/min
Orbital period
509.14 mins
BSTAR
0.0021857
Loading maneuver chart data...
Computing Atmospheric mass density...

Documentation

Showing up to 5 results
|